Tracking 33873 objects as of 21-Apr-2026
HD Live streaming from Space Station
objects crossing your sky now

STARLINK-5352

Track STARLINK-5352 now!
10-day predictions
STARLINK-5352 is classified as:


NORAD ID: 56426
Int'l Code: 2023-061BE
Perigee: 491.8 km
Apogee: 493.7 km
Inclination: 43.0 °
Period: 94.3 minutes
Semi major axis: 6863 km
RCS: Unknown
Launch date: May 4, 2023
Source: United States (US)
Launch site: AIR FORCE EASTERN TEST RANGE (AFETR)
Your satellite tracking list
Your tracking list is empty




NASA's NSSDC Master Catalog

Two Line Element Set (TLE):
1 56426U 23061BE  26110.91668981  .00019030  00000-0  71772-3 0  9993
2 56426  43.0037 301.0371 0001405 275.1002 244.6372 15.26719728  5780
Source of the keplerian elements: AFSPC